www.pogodaiklimat.ru

Погода и климат >> Архив погоды >> Гондурас >> Пуэрто-Лемпира


ПОГОДА в Пуэрто-Лемпире

  • Прогноз погоды в Пуэрто-Лемпире
  • Монитор погоды в Пуэрто-Лемпире

АРХИВ ПОГОДЫ в Пуэрто-Лемпире

Время (UTC), дата Ветер
(напр.,м/с)
 
Видим.   Явления Облачность Т
(С)
Тd
(С)
f
(%)
Тe
(С)
Тes
(С)
Комфортность P
(гПа)
Po
(гПа)
Тmin
(С)
Tmax
(С)
R
(мм)
R24
(мм)
S
(см)
12 18.05 штиль 0 10 км мгла 9/4 840 м
[Cu med, cong Ci fib]
+27.0 +25.3 90 +39 +40 очень
душно
1012.1 1010.6 +25.5 +34.0
15 18.05 СВ 3 20 км мгла {туман} 4/4 600 м
[Cu Sc As op Cs]
+31.0 +24.5 68 +43 +51 опасность
перегрева
1011.9 1011.4
18 18.05 10 км мгла {туман} 9/6 900 м
[Cu med, cong]
+32.4 +23.7 60 1011.7 1010.2 +25.5 +32.4
00 19.05 СВ 4 20 км мгла {туман} 9/4 840 м
[Cu med, cong Ac trans]
+28.2 +23.5 76 +38 +38 очень
душно
1013.1 1011.0 +25.5 +34.5
12 19.05 В 4 20 км мгла 9/4 840 м
[Cu med, cong Ac trans]
+27.4 +24.1 82 +38 +38 очень
душно
1011.3 1009.8 +25.8 +34.5
15 19.05 В 4 20 км мгла {туман} 9/5 840 м
[Cu med, cong Ac trans]
+29.4 +24.0 73 +41 +43 опасность
перегрева
1012.8 1011.3
18 19.05 В 3 20 км мгла {туман} 9/5 900 м
[Cu med, cong Ac trans]
+32.0 +23.9 62 +43 +49 опасность
перегрева
1011.8 1010.3 +25.8 +32.0
21 19.05 В 7 20 км мгла {туман} 9/3 840 м
[Cu med, cong Ac trans]
+32.4 +24.6 64 +45 +46 опасность
перегрева
1011.3 1009.8
00 20.05 В 4 20 км мгла {туман} 9/1 840 м
[Cu med, cong Ac trans Ci fib]
+28.0 +23.9 78 +39 +39 очень
душно
1012.0 1010.5 +25.8 +33.0
12 20.05 штиль 0 20 км мгла 9/4 840 м
[Cu med, cong Ac trans]
+26.0 +23.8 88 +36 +36 очень
душно
1012.8 1011.3 +24.2 +33.0
15 20.05 СВ 4 20 км мгла {туман} 5/1 600 м
[Cb cap Ac trans]
+31.2 +23.0 62 +41 +47 опасность
перегрева
1012.8 1011.3
21 20.05 СВ 3 20 км мгла {туман} 9/4 600 м
[Cb calv Ac und Cc]
+29.8 +23.5 69 +40 +43 очень
душно
1010.3 1008.8
00 21.05 СВ 4 20 км {туман} 9/4 600 м
[Cu Sc As op Cs]
+28.8 +23.6 74 +39 +39 очень
душно
1010.9 1009.4 +24.2 +33.5
12 21.05 ЮВ 3 20 км мгла 9/5 800 м
[Cu med, cong Ac trans]
+24.4 +23.3 94 +33 +33 очень
душно
1009.9 1008.4 +23.5 +33.5
15 21.05 ЮВ 2 20 км в посл. час дождь {морось} 9/6 800 м
[Cu med, cong Ac und]
+25.4 +24.0 92 +35 +38 очень
душно
1011.4 1009.9 6
21 21.05 штиль 0 20 км в посл. час дождь {морось} 9/5 800 м
[Cu med, cong Ac und]
+26.2 +24.6 91 +37 +40 очень
душно
1009.9 1008.4 19
00 22.05 СВ 3 5000 м слаб. морось {дождь} 9/5 600 м
[Sc Ac und]
+25.0 +24.5 97 +35 +35 очень
душно
1009.6 1008.1 +23.5 +28.8 2
12 22.05 В 2 20 км мгла 9/4 800 м
[Cu med, cong Ac trans]
+25.4 +23.8 91 +35 +35 очень
душно
1010.0 1008.5 +24.0 +28.8 3
15 22.05 В 4 20 км осадки на расстоянии {туман} 9/5 800 м
[Cb cap Ac und]
+28.8 +24.2 76 +40 +42 очень
душно
1011.6 1010.1
21 22.05 СВ 7 5000 м слаб. дождь {морось} 10/8 480 м
[Cu med, cong As op]
+23.6 +22.8 95 +31 +31 очень
душно
1011.9 1001.4 8
12 23.05 В 3 10 км мгла 9/1 840 м
[Cu med, cong Ac trans]
+25.2 +23.4 90 +34 +34 очень
душно
1011.0 1009.5 +23.2 +28.5 6
15 23.05 штиль 0 20 км мгла {туман} 9/4 540 м
[Sc diur, vesp Ac As]
+27.2 +23.8 82 +37 +42 очень
душно
1011.7 1010.2
18 23.05 Ю 5 20 км в посл. час ливневой дождь 9/4 840 м
[Cu med, cong Ac As]
+26.4 +23.2 83 +36 +39 очень
душно
1012.5 1011.0 +23.2 +29.4 6
21 23.05 В 4 20 км осадки на расстоянии {туман} 9/5 840 м
[Cu med, cong Ac trans Ci fib]
+29.2 +24.4 75 +41 +43 опасность
перегрева
1009.9 1008.4
00 24.05 В 4 20 км осадки на расстоянии {туман} 9/4 540 м
[Sc diur, vesp Cs]
+27.2 +23.8 82 +37 +37 очень
душно
1010.4 1008.9 +23.2 +30.0
12 24.05 штиль 0 20 км мгла 9/5 840 м
[Cu med, cong Ac trans]
+27.0 +24.8 88 +39 +39 очень
душно
1011.4 1009.9 +25.6 +30.0
15 24.05 штиль 0 20 км мгла {туман} 9/5 840 м
[Cu med, cong Ac trans]
+29.0 +23.5 72 +39 +44 очень
душно
1013.4 1011.9
18 24.05 В 2 20 км мгла {туман} 9/6 840 м
[Cu med, cong Ac trans]
+27.4 +24.4 84 +39 +43 очень
душно
1012.8 1011.3 +25.6 +29.0
21 24.05 В 3 5000 м слаб. дождь {морось} 10/8 540 м
[Cu med, cong As op]
+24.0 +22.9 94 +32 +32 очень
душно
1011.4 1010.2 4
00 25.05 штиль 0 20 км мгла {дождь} 9/5 800 м
[Cu med, cong Ac trans]
+25.4 +23.5 89 +34 +34 очень
душно
1012.0 1010.5 +25.6 +28.2 7

 

Местоположение метеостанции Пуэрто-Лемпира (Гондурас): широта 15.22 долгота -83.80 высота над уровнем моря 13 м.

В архиве по умолчанию представлена погода в Пуэрто-Лемпире за последнюю неделю. Архивные данные за месяц целиком и за предыдущие месяцы, начиная с января 2011 года, Вы можете получить, выбрав интересующий диапазон дат из раскрывающегося списка и нажав кнопку "Ввод!".


*Определитесь, кто Вы:
робот инопланетянин человек

Внимание! Время в таблицах - всемирное. Для получения местного времени необходимо прибавить поправку, которая равна -6 ч.

Смотрите также архив погоды в соседних городах и на ближайших метеорологических станциях:

Погода в Пуэрто-Кабесасе (Никарагуа) (136 км)
Погода в Катакамасе (Гондурас) (232 км)
Погода в Трухильо (Гондурас) (241 км)
Погода на Роатане (Гондурас) (315 км)
Погода в Ла-Сейбе (Гондурас) (333 км)
Погода в Хинотеге (Никарагуа) (335 км)
Погода на Острове Провиденсия (Колумбия) (335 км)
Погода в Йоро (Гондурас) (355 км)
Погода в Блуфилдсе (Никарагуа) (358 км)
Погода на Острове Сан-Андрес (Колумбия) (370 км)

Пояснения к столбцам:

Ветер - указаны скорость ветра в м/с - средняя за 10 мин, порывы в срок и между сроками (в фигурных скобках) и направление, откуда дует ветер: С - северный, СВ - северо-восточный, В - восточный, ЮВ - юго-восточный, Ю - южный, ЮЗ - юго-западный, З - западный, СЗ - северо-западный.
Видимость - горизонтальная дальность видимости в метрах или километрах. При видимости от 1 до 10 км при отсутствии осадков обычно наблюдается дымка, при ухудшении видимости до 1 км и менее - туман. В сухую погоду видимость может ухудшаться дымом, пылью или мглою.
Явления - указаны атмосферные явления, наблюдавшиеся в срок или в последний час перед сроком; фигурными скобками обозначены явления, наблюдавшиеся между сроками (за 1-3 часа до срока); квадратными скобками обозначены град или гололедные отложения с указанием их диаметра в мм.
Облачность - указаны через наклонную черту общая и нижняя облачность в баллах и высота нижней границы облаков в метрах; квадратными скобками обозначены формы облаков: Ci - перистые, Cs - перисто-слоистые, Cc - перисто-кучевые, Ac - высококучевые, As - высокослоистые, Sc - слоисто-кучевые, Ns - слоисто-дождевые, Cu - кучевые, Cb - кучево-дождевые. Подробнее классификацию облаков см. в Атласе облаков (PDF).
T - Температура воздуха - температура, измеренная на высоте 2 м над землей.
Td - Температура точки росы - температура, при понижении до которой содержащийся в воздухе водяной пар достигнет насыщения.
f - Относительная влажность воздуха - влажноcть воздуха, измеренная на высоте 2 м над землей.
Te - Эффективная температура - температура, которую ощущает одетый по сезону человек в тени. Характеристика душности погоды. При расчете учитывается влияние влажности воздуха и скорости ветра на теплоощущения человека.
Tes - Эффективная температура на солнце - температура, которую ощущает человек, с поправкой на солнечный нагрев. Характеристика знойности погоды. Зависит от высоты солнца над горизонтом, облачности и скорости ветра. Ночью, в пасмурную погоду, а также при ветре 12 м/с и более поправка равна нулю.
P - Атмосферное давление - приведенное к уровню моря атмосферное давление.
Po - Атмосферное давление - измеренное на уровне метеостанции атмосферное давление.
Tmin - Минимальная температура - минимум температуры воздуха на высоте 2 м над землей.
Tmax - Максимальная температура - максимум температуры воздуха на высоте 2 м над землей.
R - Количество осадков - Количество выпавших осадков за период времени, мм. При наведении курсора мыши на число - период времени, за который выпало указанное количество осадков.
R24 - Количество осадков - Количество выпавших осадков за 24 часа, мм.
S - Снежный покров - Высота снежного покрова, см. При наведении курсора мыши на число - состояние снежного покрова и степень покрытия местности в баллах.